When you browse on this site, cookies collect data to enhance your experience and personalize the content and advertising you see.
Visit our Privacy Policy to learn more. By continuing to use the site, you agree to this use of cookies and data.
  • In Hungary
  • List of Countries
  • For 7 days
  • Water Temperature
  • Satellite Maps
  • Weather Map
  • News
  • Weather Widgets
  • user-avatar
    Login

    Hourly Weather Slawosze

    Today, 22 January, Tuesday

    Time Temperature Precipitation Wind Pressure Humidity
    00:00 -6°C° 0 mm 2 mps 758 mmHg 91%
    01:00 -6°C° 0 mm 2 mps 758 mmHg 91%
    02:00 -7°C° 0 mm 2 mps 758 mmHg 90%
    03:00 -7°C° 0 mm 2 mps 757 mmHg 90%
    04:00 -7°C° 0 mm 2 mps 757 mmHg 90%
    05:00 -7°C° 0 mm 2 mps 757 mmHg 89%
    06:00 -7°C° 0 mm 2 mps 757 mmHg 89%
    07:00 -7°C° 0 mm 2 mps 757 mmHg 88%
    08:00 -7°C° 0 mm 2 mps 757 mmHg 87%
    09:00 -7°C° 0 mm 3 mps 757 mmHg 86%
    10:00 -6°C° 0 mm 3 mps 757 mmHg 84%
    11:00 -6°C° 0 mm 3 mps 756 mmHg 84%
    12:00 -5°C° 0 mm 3 mps 756 mmHg 84%
    13:00 -4°C° 0 mm 3 mps 756 mmHg 84%
    14:00 -5°C° 0 mm 3 mps 756 mmHg 86%
    15:00 -6°C° 0 mm 3 mps 756 mmHg 88%
    16:00 -7°C° 0 mm 3 mps 755 mmHg 89%
    17:00 -7°C° 0 mm 3 mps 755 mmHg 90%
    18:00 -8°C° 0 mm 3 mps 755 mmHg 91%
    19:00 -8°C° 0 mm 3 mps 755 mmHg 92%
    20:00 -8°C° 0 mm 3 mps 755 mmHg 92%
    21:00 -9°C° 0 mm 3 mps 755 mmHg 92%
    22:00 -9°C° 0 mm 3 mps 755 mmHg 92%
    23:00 -9°C° 0 mm 3 mps 755 mmHg 92%

    Tomorrow, 23 January, Wednesday

    Time Temperature Precipitation Wind Pressure Humidity
    00:00 -9°C° 0 mm 3 mps 755 mmHg 92%
    01:00 -9°C° 0 mm 3 mps 754 mmHg 92%
    02:00 -10°C° 0 mm 3 mps 754 mmHg 92%
    03:00 -10°C° 0 mm 3 mps 754 mmHg 93%
    04:00 -9°C° 0 mm 2 mps 754 mmHg 93%
    05:00 -10°C° 0 mm 2 mps 754 mmHg 93%
    06:00 -10°C° 0 mm 2 mps 754 mmHg 93%
    07:00 -10°C° 0 mm 2 mps 754 mmHg 94%
    08:00 -12°C° 0 mm 3 mps 754 mmHg 93%
    09:00 -10°C° 0 mm 3 mps 754 mmHg 92%
    10:00 -10°C° 0 mm 3 mps 754 mmHg 91%
    11:00 -9°C° 0 mm 3 mps 754 mmHg 90%
    12:00 -8°C° 0 mm 2 mps 754 mmHg 88%
    13:00 -7°C° 0 mm 2 mps 754 mmHg 87%
    14:00 -8°C° 0 mm 2 mps 754 mmHg 89%
    15:00 -8°C° 0 mm 2 mps 754 mmHg 90%
    16:00 -9°C° 0 mm 2 mps 754 mmHg 92%
    17:00 -10°C° 0 mm 2 mps 754 mmHg 92%
    18:00 -10°C° 0 mm 2 mps 754 mmHg 92%
    19:00 -12°C° 0 mm 2 mps 755 mmHg 93%
    20:00 -12°C° 0 mm 2 mps 755 mmHg 93%
    21:00 -12°C° 0 mm 2 mps 755 mmHg 93%
    22:00 -12°C° 0 mm 2 mps 756 mmHg 93%
    23:00 -12°C° 0 mm 2 mps 756 mmHg 93%

    Day after tomorrow, 24 January, Thursday

    Time Temperature Precipitation Wind Pressure Humidity
    00:00 -10°C° 0 mm 1 mps 756 mmHg 93%
    01:00 -10°C° 0 mm 1 mps 756 mmHg 93%
    02:00 -11°C° 0 mm 1 mps 756 mmHg 92%
    03:00 -11°C° 0 mm 1 mps 756 mmHg 92%
    04:00 -11°C° 0 mm 1 mps 756 mmHg 91%
    05:00 -11°C° 0 mm 1 mps 757 mmHg 90%
    06:00 -11°C° 0 mm 1 mps 757 mmHg 89%
    07:00 -13°C° 0 mm 2 mps 757 mmHg 88%
    08:00 -10°C° 0 mm 1 mps 758 mmHg 86%
    09:00 -10°C° 0 mm 1 mps 758 mmHg 83%
    10:00 -9°C° 0 mm 1 mps 758 mmHg 81%
    11:00 -8°C° 0 mm 1 mps 758 mmHg 79%
    12:00 -7°C° 0 mm 1 mps 759 mmHg 76%
    13:00 -6°C° 0 mm 1 mps 759 mmHg 74%
    14:00 -7°C° 0 mm 1 mps 759 mmHg 77%
    15:00 -8°C° 0 mm 1 mps 759 mmHg 80%
    16:00 -9°C° 0 mm 1 mps 759 mmHg 83%
    17:00 -9°C° 0 mm 1 mps 759 mmHg 82%
    18:00 -9°C° 0 mm 1 mps 759 mmHg 81%
    19:00 -10°C° 0 mm 2 mps 759 mmHg 81%
    20:00 -10°C° 0 mm 2 mps 759 mmHg 80%
    21:00 -12°C° 0 mm 2 mps 760 mmHg 80%
    22:00 -12°C° 0 mm 2 mps 760 mmHg 80%
    23:00 -12°C° 0 mm 2 mps 760 mmHg 80%

    25 January, Friday

    Time Temperature Precipitation Wind Pressure Humidity
    00:00 -12°C° 0 mm 2 mps 760 mmHg 81%
    01:00 -12°C° 0 mm 2 mps 760 mmHg 82%
    02:00 -12°C° 0 mm 2 mps 759 mmHg 82%
    03:00 -12°C° 0 mm 2 mps 759 mmHg 82%
    04:00 -12°C° 0 mm 2 mps 759 mmHg 83%
    05:00 -12°C° 0 mm 2 mps 759 mmHg 83%
    06:00 -12°C° 0 mm 2 mps 759 mmHg 83%
    07:00 -12°C° 0 mm 2 mps 759 mmHg 83%
    08:00 -10°C° 0 mm 2 mps 759 mmHg 82%
    09:00 -10°C° 0 mm 2 mps 759 mmHg 81%
    10:00 -9°C° 0 mm 2 mps 759 mmHg 81%
    11:00 -8°C° 0 mm 2 mps 759 mmHg 80%
    12:00 -8°C° 0 mm 2 mps 759 mmHg 80%
    13:00 -7°C° 0 mm 2 mps 759 mmHg 79%
    14:00 -8°C° 0 mm 2 mps 758 mmHg 82%
    15:00 -7°C° 0 mm 1 mps 758 mmHg 84%
    16:00 -8°C° 0 mm 1 mps 758 mmHg 86%
    17:00 -9°C° 0 mm 2 mps 758 mmHg 86%
    18:00 -10°C° 0 mm 2 mps 758 mmHg 86%
    19:00 -10°C° 0 mm 2 mps 758 mmHg 86%
    20:00 -10°C° 0 mm 2 mps 758 mmHg 85%
    21:00 -12°C° 0 mm 2 mps 758 mmHg 85%
    22:00 -12°C° 0 mm 2 mps 757 mmHg 85%
    23:00 -12°C° 0 mm 2 mps 757 mmHg 85%

    26 January, Saturday

    Time Temperature Precipitation Wind Pressure Humidity
    00:00 -13°C° 0 mm 3 mps 757 mmHg 86%
    01:00 -13°C° 0 mm 3 mps 757 mmHg 86%
    02:00 -13°C° 0 mm 3 mps 756 mmHg 86%
    03:00 -13°C° 0 mm 3 mps 756 mmHg 86%
    04:00 -13°C° 0 mm 3 mps 755 mmHg 85%
    05:00 -14°C° 0 mm 4 mps 755 mmHg 85%
    06:00 -14°C° 0 mm 4 mps 754 mmHg 85%
    07:00 -12°C° 0 mm 4 mps 754 mmHg 84%
    08:00 -13°C° 0 mm 5 mps 754 mmHg 83%
    09:00 -12°C° 0 mm 6 mps 753 mmHg 81%
    10:00 -11°C° 0 mm 6 mps 753 mmHg 80%
    11:00 -11°C° 0 mm 6 mps 752 mmHg 79%
    12:00 -10°C° 0 mm 6 mps 752 mmHg 78%
    13:00 -9°C° 0 mm 7 mps 751 mmHg 76%
    14:00 -9°C° 0.1 mm 7 mps 750 mmHg 79%
    15:00 -9°C° 0.1 mm 7 mps 749 mmHg 81%
    16:00 -9°C° 0.1 mm 7 mps 749 mmHg 83%
    17:00 -9°C° 0.3 mm 7 mps 748 mmHg 85%
    18:00 -9°C° 0.3 mm 7 mps 748 mmHg 87%
    19:00 -9°C° 0.3 mm 7 mps 747 mmHg 88%
    20:00 -9°C° 0.2 mm 7 mps 747 mmHg 88%
    21:00 -9°C° 0.2 mm 7 mps 746 mmHg 88%
    22:00 -8°C° 0.2 mm 7 mps 746 mmHg 88%
    23:00 -8°C° 0.3 mm 7 mps 745 mmHg 89%

    27 January, Sunday

    Time Temperature Precipitation Wind Pressure Humidity
    00:00 -8°C° 0.3 mm 7 mps 744 mmHg 90%
    01:00 -8°C° 0.3 mm 7 mps 744 mmHg 90%
    02:00 -8°C° 0.8 mm 7 mps 743 mmHg 91%
    03:00 -8°C° 0.8 mm 7 mps 742 mmHg 92%
    04:00 -8°C° 0.8 mm 7 mps 741 mmHg 93%
    05:00 -7°C° 0.6 mm 7 mps 741 mmHg 93%
    06:00 -6°C° 0.6 mm 7 mps 740 mmHg 92%
    07:00 -4°C° 0.6 mm 7 mps 740 mmHg 92%
    08:00 -3°C° 0.1 mm 6 mps 740 mmHg 93%
    09:00 -2°C° 0.1 mm 6 mps 739 mmHg 94%
    10:00 -2°C° 0.1 mm 6 mps 739 mmHg 95%
    11:00 0°C° 0.6 mm 5 mps 739 mmHg 96%
    12:00 0°C° 0.6 mm 5 mps 739 mmHg 97%
    13:00 0°C° 0.6 mm 5 mps 739 mmHg 98%
    14:00 0°C° 0.3 mm 4 mps 739 mmHg 98%
    15:00 -1°C° 0.3 mm 4 mps 739 mmHg 97%
    16:00 0°C° 0.3 mm 3 mps 739 mmHg 96%
    17:00 0°C° 0.1 mm 3 mps 740 mmHg 96%
    18:00 -1°C° 0.1 mm 4 mps 740 mmHg 95%
    19:00 -2°C° 0.1 mm 4 mps 741 mmHg 95%
    20:00 -2°C° 0.1 mm 4 mps 741 mmHg 94%
    21:00 -1°C° 0.1 mm 4 mps 741 mmHg 93%
    22:00 -1°C° 0.1 mm 4 mps 742 mmHg 92%
    23:00 -2°C° 0 mm 4 mps 742 mmHg 92%
    Show more